Wind_Speed
13 12 12 8 11 14 13 13 16 17 17 23 23 22 23 21 25 27 28 28 29 33 29 36 39 35 33 37 38 33 33 32 32 34 36 36 35 34 32 30 27 26 27 28
14 12 9 7 8 12 15 17 18 19 17 19 24 35 31 30 28 28 27 27 29 28 30 42 47 37 35 34 37 40 33 35 35 33 34 36 37 36 35 32 30 28 28 29
10 5 7 9 10 11 11 15 16 17 16 21 24 37 31 32 38 37 36 34 32 34 33 34 41 48 38 36 39 45 32 37 35 34 32 35 39 39 39 37 36 31 28 30
5 6 10 12 13 11 12 8 11 12 10 7 3 13 22 15 21 28 37 39 36 35 36 46 46 54 47 38 36 39 37 34 34 32 30 34 39 42 40 38 36 34 32 32
5 11 12 15 6 7 6 11 10 11 13 17 17 13 18 13 21 28 28 27 32 31 35 36 46 54 54 44 36 40 44 38 37 33 29 28 34 39 40 41 40 39 37 34
10 15 14 9 13 13 13 17 13 11 9 9 19 19 33 33 30 27 26 24 22 27 28 34 40 48 60 49 44 40 46 41 38 36 33 31 33 36 41 41 43 42 40 37
18 8 7 10 12 13 9 10 3 4 6 6 6 15 37 22 25 22 25 27 26 23 27 28 36 39 49 58 49 46 46 42 37 39 35 29 31 37 39 41 41 43 42 39
9 5 9 17 16 8 15 10 5 5 3 8 8 11 17 17 21 19 21 25 33 36 29 25 30 37 39 53 53 49 46 42 33 35 39 39 38 36 36 39 41 42 42 41
9 7 14 23 13 17 3 10 14 12 19 12 16 25 26 23 21 18 18 30 36 35 34 32 42 31 36 41 52 52 46 46 40 35 35 36 38 34 33 34 37 39 41 41
12 15 12 10 18 10 13 7 3 10 4 6 9 18 14 23 33 29 37 29 28 29 33 38 42 38 30 34 43 53 50 46 48 37 30 29 27 30 31 34 36 35 38 42
15 8 16 23 11 15 7 16 14 8 8 4 6 5 18 31 39 37 27 24 29 24 26 35 38 42 38 34 40 50 53 47 51 43 39 34 29 28 31 31 32 36 37 40
8 10 13 20 13 9 9 12 14 8 4 8 6 13 20 19 13 9 7 15 23 26 20 22 25 34 34 35 41 46 55 53 48 55 44 48 42 42 39 35 34 39 41 39
10 6 11 4 4 15 10 12 19 19 20 19 6 8 12 15 8 5 3 3 10 12 10 15 18 24 28 30 34 40 48 57 55 54 53 53 52 49 47 43 42 41 43 39
9 10 9 12 9 9 9 12 14 22 18 15 13 27 18 17 9 7 10 13 19 20 13 10 14 17 19 19 24 33 43 51 56 53 56 59 61 58 55 51 48 46 43 42
11 7 13 7 2 10 15 16 12 10 28 8 9 9 9 11 12 11 14 15 12 15 18 17 14 11 12 13 16 20 27 35 46 51 53 61 62 63 61 57 49 49 47 47
8 9 14 8 18 19 17 17 16 8 4 18 15 4 7 8 10 13 12 16 16 16 16 12 10 8 8 11 11 13 17 22 30 37 41 48 53 52 53 54 50 51 51 48
8 13 10 4 7 6 3 15 18 14 11 12 11 10 11 14 15 16 16 19 20 17 15 16 17 15 6 3 7 13 16 21 21 26 32 35 37 38 41 43 47 47 47 46
10 12 4 6 5 1 4 6 14 13 11 12 11 10 11 14 19 23 27 30 31 30 29 27 25 25 23 20 14 8 4 11 14 19 19 28 34 33 35 36 37 43 46 42
10 8 5 3 3 1 2 5 8 9 8 10 15 18 19 22 26 24 24 26 26 25 25 26 27 26 24 23 23 26 24 20 13 7 5 11 17 25 28 37 37 41 46 47
9 5 4 4 3 1 4 4 3 6 4 10 11 11 11 12 13 15 16 16 16 17 17 18 18 18 17 17 17 17 16 15 15 14 16 18 16 11 8 13 22 29 35 41
8 5 5 4 4 3 4 2 3 0 2 5 6 8 10 11 11 11 11 12 13 14 14 14 14 14 15 15 16 16 16 16 16 17 19 19 19 18 19 21 21 21 21 22
4 3 3 3 3 4 3 5 5 6 5 1 2 4 6 6 6 8 9 9 10 11 12 12 13 13 13 14 14 14 14 15 16 17 17 18 19 20 22 23 25 27 28 30
4 5 5 5 5 5 5 6 7 6 5 4 4 4 3 3 4 5 6 6 6 7 8 9 10 10 11 13 13 13 12 12 14 15 15 17 18 21 22 23 24 25 27 29
6 8 10 11 8 10 10 9 9 8 8 8 9 7 7 6 5 6 7 8 8 9 9 9 10 11 12 13 13 12 11 12 13 14 14 15 16 18 21 23 24 26 25 25
14 15 13 11 10 11 11 11 11 10 11 11 9 7 6 6 7 8 8 8 8 10 12 11 12 13 14 13 12 11 12 15 16 17 18 19 20 20 21 25 25 25 27 29
19 18 17 14 10 9 6 7 7 7 7 7 7 7 7 7 9 10 10 9 9 11 12 12 13 13 12 12 13 13 14 16 18 19 20 21 21 23 24 24 26 29 30 30
Wind_Direction
291 288 283 259 254 253 260 258 265 262 269 276 272 269 259 253 252 248 246 243 241 235 240 240 230 231 231 230 236 235 228 221 224 225 227 226 229 228 229 233 235 235 231 229
301 295 279 303 300 279 267 270 274 281 277 268 279 275 267 254 249 243 251 244 241 241 232 234 237 227 231 230 233 240 232 234 226 230 230 230 231 231 232 234 239 241 238 232
309 265 323 309 306 301 284 270 272 273 288 282 294 286 283 276 267 262 254 252 244 238 238 236 237 230 230 227 228 235 238 239 230 233 234 235 235 232 231 231 234 238 241 239
331 342 320 318 298 287 288 281 271 274 287 283 9 290 280 275 267 262 262 259 254 249 247 241 233 235 231 230 227 228 231 237 227 234 239 242 243 240 237 236 238 238 241 244
305 310 309 307 315 289 257 290 300 281 275 287 263 266 276 270 268 266 260 259 261 257 247 247 242 239 234 232 231 223 226 233 232 232 238 251 251 246 239 237 238 238 239 242
333 307 300 311 299 293 280 298 289 270 264 254 251 225 275 264 271 273 274 267 261 258 262 250 244 241 239 232 231 225 225 232 230 230 236 252 258 250 242 238 237 239 241 244
334 347 350 315 319 318 264 278 287 226 199 252 277 227 251 280 283 268 269 264 264 256 260 243 242 239 239 231 229 229 228 226 231 230 232 242 258 250 243 242 241 243 244 245
338 330 317 317 321 299 293 250 245 288 286 294 273 243 252 290 282 284 273 266 256 248 246 234 242 239 237 235 230 230 233 228 234 237 237 237 244 244 243 244 243 245 246 247
329 288 301 309 308 305 315 227 263 267 274 275 256 273 281 274 278 266 273 264 262 258 241 224 231 223 237 238 231 229 231 228 230 243 238 241 245 244 249 248 248 246 248 249
316 300 316 322 313 313 239 233 245 217 274 275 276 287 283 282 286 286 290 268 256 264 244 230 234 224 232 238 236 228 229 229 227 234 238 242 246 248 255 256 253 251 248 248
321 282 306 321 326 316 282 239 242 260 252 291 310 284 291 294 296 295 274 255 248 261 252 236 235 222 231 234 235 227 225 228 230 230 238 239 242 258 249 254 263 255 250 248
328 291 288 305 315 331 263 240 238 234 234 229 256 282 299 313 326 307 253 249 255 267 233 228 219 223 232 233 231 225 221 224 227 236 234 244 244 254 254 253 257 259 253 249
324 297 305 303 333 341 309 289 248 247 256 255 262 283 309 329 327 343 116 190 234 142 192 214 214 218 221 224 225 229 227 225 225 227 233 242 247 254 260 259 257 260 253 248
340 304 290 305 304 332 349 313 281 245 243 256 271 303 284 320 325 59 81 85 83 94 122 167 197 208 214 219 222 226 229 230 232 231 231 242 248 253 259 261 256 256 254 249
335 303 310 273 118 27 22 14 352 318 244 229 324 338 329 348 17 38 61 61 71 81 94 102 124 166 189 210 220 224 229 230 233 237 239 239 250 253 257 259 258 253 256 251
331 322 329 294 248 290 336 11 31 54 97 224 256 12 38 54 61 56 58 64 71 59 55 68 88 117 155 179 207 213 233 238 233 235 241 247 250 252 253 255 256 255 254 250
343 351 346 306 320 323 325 18 49 57 97 114 104 84 90 78 78 72 69 67 60 56 54 64 71 72 90 133 185 199 211 221 219 228 240 242 245 247 250 251 250 249 252 256
333 354 337 298 352 345 353 48 74 70 71 81 86 82 68 67 68 72 67 66 69 69 66 67 68 64 61 59 65 70 231 225 226 222 214 222 235 238 243 241 243 249 251 251
333 348 330 329 2 314 297 71 80 72 63 74 82 73 68 62 55 52 50 48 50 53 52 52 53 52 49 45 41 38 34 28 31 26 303 261 238 230 234 239 245 246 247 250
325 309 327 308 290 296 293 264 227 25 53 89 76 69 54 55 59 50 46 43 42 45 44 43 43 41 36 31 25 23 18 11 1 2 356 355 351 340 306 269 262 258 251 246
314 296 275 277 260 267 281 252 162 101 186 92 62 39 40 43 41 39 36 37 36 31 30 31 30 27 24 20 13 8 2 356 351 347 345 340 333 324 314 309 305 302 294 287
286 282 266 267 263 270 237 185 174 168 177 161 45 39 33 30 30 32 30 28 26 21 17 19 19 14 12 12 7 1 360 359 1 0 354 349 345 340 330 321 311 303 296 291
267 264 274 262 257 246 213 205 198 217 240 276 331 340 348 347 346 352 3 8 8 13 7 9 8 4 6 4 1 359 355 360 3 2 357 354 352 354 349 344 334 321 311 303
257 280 276 284 260 250 244 242 247 260 267 284 299 303 309 312 318 329 336 336 338 344 348 353 356 357 1 1 359 358 1 3 2 357 352 356 354 350 351 353 349 341 329 325
263 274 279 267 263 260 262 257 255 255 265 277 286 291 296 308 315 320 322 315 317 332 339 343 344 349 351 354 359 356 354 352 351 350 348 346 344 346 348 345 346 347 341 336
270 263 257 262 251 257 263 258 252 258 267 276 283 280 277 293 306 311 314 311 318 328 329 330 335 340 339 346 351 353 349 346 347 345 343 344 344 345 345 345 345 343 346 347
Height
3072 3072 3071 3072 3073 3072 3073 3074 3075 3076 3075 3072 3069 3068 3069 3072 3073 3073 3075 3079 3083 3088 3093 3095 3096 3100 3103 3106 3110 3114 3119 3120 3122 3125 3127 3132 3135 3138 3141 3144 3147 3149 3150 3153
3070 3068 3069 3069 3069 3068 3069 3069 3070 3070 3069 3068 3064 3056 3059 3060 3062 3066 3067 3070 3076 3080 3084 3086 3087 3092 3096 3100 3104 3107 3112 3115 3118 3120 3124 3127 3130 3134 3137 3140 3143 3145 3147 3149
3067 3069 3067 3067 3066 3066 3066 3066 3066 3068 3066 3064 3060 3048 3051 3053 3054 3055 3056 3062 3066 3069 3074 3078 3079 3084 3089 3093 3097 3101 3106 3110 3112 3116 3118 3122 3124 3127 3130 3134 3136 3139 3142 3144
3067 3067 3067 3066 3065 3066 3065 3065 3064 3064 3065 3064 3062 3051 3046 3049 3048 3047 3049 3052 3057 3061 3064 3068 3072 3074 3080 3086 3091 3095 3099 3103 3107 3111 3113 3114 3118 3122 3127 3129 3132 3135 3137 3138
3070 3066 3064 3063 3064 3064 3065 3061 3061 3062 3061 3059 3059 3062 3038 3043 3041 3042 3046 3046 3048 3052 3056 3061 3065 3068 3073 3079 3083 3087 3092 3095 3101 3104 3106 3108 3112 3116 3120 3122 3126 3128 3130 3133
3065 3064 3061 3061 3061 3060 3060 3059 3058 3058 3059 3054 3052 3056 3029 3035 3036 3040 3042 3043 3044 3045 3048 3051 3055 3060 3063 3073 3076 3080 3084 3089 3093 3097 3100 3103 3107 3109 3112 3116 3118 3122 3125 3128
3062 3061 3060 3058 3058 3059 3058 3059 3057 3055 3055 3048 3046 3046 3025 3030 3034 3034 3033 3035 3035 3037 3038 3042 3048 3051 3054 3061 3066 3073 3078 3083 3087 3090 3094 3098 3100 3102 3105 3109 3112 3115 3118 3122
3064 3061 3059 3058 3057 3058 3055 3058 3057 3048 3045 3041 3041 3032 3029 3028 3026 3027 3027 3027 3024 3026 3029 3034 3040 3043 3045 3051 3058 3065 3069 3076 3079 3084 3088 3091 3093 3096 3098 3101 3105 3108 3111 3115
3065 3059 3057 3055 3054 3056 3054 3054 3055 3052 3049 3045 3034 3028 3026 3022 3022 3020 3018 3018 3015 3016 3020 3023 3025 3030 3037 3041 3048 3056 3063 3069 3071 3077 3081 3084 3087 3087 3092 3095 3097 3101 3104 3107
3065 3057 3053 3054 3053 3052 3051 3053 3053 3052 3047 3036 3025 3025 3023 3018 3016 3015 3010 3008 3009 3007 3009 3012 3017 3023 3029 3034 3039 3047 3055 3061 3065 3070 3072 3075 3080 3084 3083 3086 3089 3092 3095 3097
3064 3062 3054 3050 3049 3048 3048 3050 3050 3050 3047 3040 3032 3025 3021 3016 3011 3005 3003 3002 3002 3002 3001 3003 3006 3013 3020 3026 3030 3037 3045 3052 3057 3061 3065 3069 3073 3077 3079 3080 3083 3085 3087 3089
3063 3059 3053 3050 3048 3046 3046 3047 3047 3046 3043 3040 3038 3027 3021 3014 3009 3003 3000 2998 2998 2998 2996 2997 3001 3007 3014 3017 3021 3026 3035 3043 3048 3053 3056 3060 3065 3068 3072 3074 3077 3077 3078 3079
3063 3058 3052 3047 3049 3046 3044 3043 3041 3041 3039 3033 3036 3025 3019 3013 3008 3002 2996 2994 2991 2990 2992 2993 2996 3002 3008 3011 3014 3020 3027 3033 3039 3043 3049 3051 3055 3058 3062 3067 3068 3068 3068 3070
3060 3057 3055 3054 3052 3048 3044 3039 3037 3035 3032 3030 3030 3023 3017 3014 3009 3003 2998 2993 2990 2989 2988 2990 2994 2999 3004 3007 3009 3013 3019 3026 3031 3037 3041 3044 3046 3048 3052 3055 3058 3059 3059 3060
3059 3055 3053 3050 3049 3047 3043 3038 3032 3028 3024 3029 3027 3023 3019 3015 3010 3005 3002 2998 2994 2990 2989 2990 2993 2998 3003 3005 3007 3010 3014 3018 3023 3027 3031 3035 3036 3040 3042 3045 3047 3049 3049 3050
3058 3055 3050 3046 3046 3045 3043 3039 3032 3028 3024 3027 3028 3026 3021 3018 3014 3009 3005 3001 2995 2993 2990 2992 2995 2997 2999 3001 3004 3008 3010 3013 3016 3020 3022 3025 3027 3029 3032 3034 3036 3038 3039 3039
3057 3054 3051 3048 3046 3043 3044 3040 3035 3032 3030 3029 3028 3028 3025 3021 3016 3011 3008 3004 2999 2997 2997 2998 2998 2999 3001 3002 3003 3005 3007 3009 3011 3012 3016 3017 3020 3022 3023 3023 3025 3027 3029 3030
3055 3053 3051 3049 3046 3044 3046 3043 3039 3037 3035 3033 3031 3030 3027 3023 3020 3016 3012 3008 3005 3004 3005 3004 3003 3004 3004 3004 3005 3006 3005 3006 3006 3007 3007 3008 3011 3012 3014 3015 3016 3017 3019 3020
3054 3052 3051 3050 3048 3048 3046 3044 3043 3040 3039 3036 3034 3032 3030 3027 3024 3022 3018 3016 3014 3013 3012 3011 3011 3010 3011 3011 3010 3009 3008 3007 3007 3006 3004 3003 3001 3002 3003 3006 3007 3008 3009 3009
3054 3052 3053 3050 3049 3045 3046 3044 3044 3042 3041 3038 3036 3034 3032 3031 3028 3026 3024 3022 3021 3018 3017 3016 3014 3013 3013 3013 3011 3010 3009 3008 3007 3005 3004 3002 2999 2997 2996 2997 2997 2997 2997 2996
3052 3051 3050 3049 3048 3045 3044 3043 3043 3044 3047 3039 3038 3036 3034 3033 3032 3030 3027 3026 3024 3023 3021 3019 3018 3016 3015 3013 3012 3011 3010 3008 3005 3004 3002 3000 2999 2997 2996 2995 2993 2991 2990 2988
3051 3050 3049 3048 3046 3046 3043 3043 3042 3042 3041 3040 3038 3037 3036 3034 3033 3032 3030 3029 3027 3026 3024 3022 3021 3019 3018 3016 3015 3013 3012 3009 3007 3004 3002 3000 2998 2996 2993 2991 2988 2986 2984 2983
3049 3049 3048 3048 3045 3043 3042 3042 3041 3041 3040 3039 3038 3037 3035 3034 3033 3032 3031 3030 3029 3028 3027 3025 3024 3022 3020 3018 3016 3015 3013 3011 3009 3007 3004 3001 2998 2994 2991 2988 2985 2981 2978 2975
3046 3046 3044 3045 3042 3041 3041 3041 3041 3040 3039 3039 3038 3037 3036 3035 3034 3034 3032 3031 3030 3029 3027 3026 3025 3023 3021 3019 3017 3015 3013 3011 3009 3007 3004 3001 2999 2995 2991 2987 2982 2977 2974 2971
3042 3042 3041 3040 3039 3039 3038 3038 3038 3038 3038 3037 3036 3035 3034 3034 3033 3033 3032 3030 3029 3028 3027 3025 3023 3021 3020 3018 3016 3014 3013 3011 3008 3006 3003 3000 2997 2994 2990 2985 2981 2978 2971 2965
3035 3035 3036 3036 3036 3036 3036 3036 3035 3035 3035 3035 3034 3034 3033 3032 3031 3031 3030 3029 3028 3028 3026 3024 3022 3021 3019 3017 3015 3013 3011 3010 3007 3005 3002 2999 2996 2992 2988 2985 2980 2974 2969 2963